Weather History for Connaught Airport, Ireland

Change the Weather History Date:

Sunday, September 29, 2013

  Actual Average Record
Temperature  
Mean Temperature 58 °F -  
Max Temperature 63 °F - - ()
Min Temperature 53 °F - - ()
Degree Days  
Heating Degree Days 7    
Growing Degree Days 8 (Base 50)    
Moisture  
Dew Point 52 °F    
Average Humidity 84    
Maximum Humidity 97    
Minimum Humidity 71    
Precipitation  
Precipitation 0.00 in - - ()
Sea Level Pressure  
Sea Level Pressure 29.70 in    
Wind  
Wind Speed 11 mph ()    
Max Wind Speed 16 mph    
Max Gust Speed -    
Visibility 6.6 miles    
Events      
T = Trace of Precipitation, MM = Missing Value Source: Averaged Metar Reports

Daily Weather History Graph

Daily Weather History Graph

Search for Another Location

Airport:

Trip Planner

Search our weather history database for the weather conditions in past years. The results will help you decide how hot, cold, wet, or windy it might be!

Date:

Astronomy

Sep. 29, 2013 Rise Set
Actual Time 7:33 AM IST 7:16 PM IST
Civil Twilight 6:58 AM IST 7:51 PM IST
Nautical Twilight 6:17 AM IST 8:32 PM IST
Astronomical Twilight 5:34 AM IST 9:14 PM IST
Moon 1:20 AM IST (9/29) 4:41 PM IST (9/29)
Length of Visible Light 12h 52m
Length of Day
11h 42m
Waning Crescent, 29% of the Moon is Illuminated
Sep 29
Waning Crescent
Oct 5
New
Oct 12
First Quarter
Oct 19
Full
Oct 27
Last Quarter

Hourly Weather History & Observations

Time (IST) Temp. Dew Point Humidity Pressure Visibility Wind Dir Wind Speed Gust Speed Precip Events Conditions
1:00 AM 54 °F 51 °F 86% 29.74 in - ESE 13.4 mph - -  
7:00 AM 53 °F 52 °F 97% 29.71 in 16 mi ESE 11.2 mph - -   Scattered Clouds
7:00 AM 53.6 °F 51.8 °F 94% 29.68 in 6.2 mi ESE 11.5 mph - N/A   Mostly Cloudy
7:30 AM 53.6 °F 51.8 °F 94% 29.68 in 6.2 mi East 11.5 mph - N/A   Mostly Cloudy
8:00 AM 53.6 °F 51.8 °F 94% 29.71 in 6.2 mi ESE 11.5 mph - N/A   Mostly Cloudy
8:30 AM 53.6 °F 51.8 °F 94% 29.71 in 6.2 mi East 9.2 mph - N/A   Mostly Cloudy
9:00 AM 53.6 °F 51.8 °F 94% 29.71 in 6.2 mi ESE 11.5 mph - N/A   Mostly Cloudy
9:30 AM 53.6 °F 51.8 °F 94% 29.71 in 6.2 mi ESE 10.4 mph - N/A   Mostly Cloudy
10:00 AM 55.4 °F 51.8 °F 88% 29.71 in 6.2 mi ESE 12.7 mph - N/A   Mostly Cloudy
10:30 AM 55.4 °F 51.8 °F 88% 29.71 in 6.2 mi ESE 12.7 mph - N/A   Mostly Cloudy
11:00 AM 55.4 °F 51.8 °F 88% 29.71 in 6.2 mi ESE 13.8 mph - N/A   Mostly Cloudy
11:30 AM 55.4 °F 51.8 °F 88% 29.71 in 6.2 mi ESE 11.5 mph - N/A   Mostly Cloudy
12:00 PM 57.2 °F 51.8 °F 82% 29.71 in 6.2 mi ESE 12.7 mph - N/A   Mostly Cloudy
12:30 PM 57.2 °F 51.8 °F 82% 29.71 in 6.2 mi ESE 13.8 mph - N/A   Mostly Cloudy
1:00 PM 58 °F 51 °F 71% 29.73 in 25 mi ESE 13.4 mph - -   Mostly Cloudy
1:00 PM 59.0 °F 51.8 °F 77% 29.71 in 6.2 mi ESE 13.8 mph - N/A   Mostly Cloudy
1:30 PM 57.2 °F 51.8 °F 82% 29.71 in 6.2 mi ESE 12.7 mph - N/A   Mostly Cloudy
2:00 PM 59.0 °F 51.8 °F 77% 29.71 in 6.2 mi ESE 11.5 mph - N/A   Mostly Cloudy
2:30 PM 59.0 °F 51.8 °F 77% 29.71 in 6.2 mi ESE 11.5 mph - N/A   Mostly Cloudy
3:00 PM 60.8 °F 51.8 °F 72% 29.71 in 6.2 mi ESE 16.1 mph - N/A   Mostly Cloudy
3:30 PM 60.8 °F 51.8 °F 72% 29.68 in 6.2 mi SE 15.0 mph - N/A   Mostly Cloudy
4:00 PM 60.8 °F 53.6 °F 77% 29.68 in 6.2 mi ESE 15.0 mph - N/A   Mostly Cloudy
4:30 PM 59.0 °F 53.6 °F 82% 29.68 in 6.2 mi ESE 15.0 mph - N/A   Mostly Cloudy
5:00 PM 59.0 °F 51.8 °F 77% 29.68 in 6.2 mi ESE 12.7 mph - N/A   Mostly Cloudy
5:30 PM 57.2 °F 51.8 °F 82% 29.68 in 6.2 mi ESE 12.7 mph - N/A   Mostly Cloudy
6:00 PM 57.2 °F 50.0 °F 77% 29.68 in 6.2 mi ESE 13.8 mph - N/A   Mostly Cloudy
6:30 PM 57.2 °F 50.0 °F 77% 29.68 in 6.2 mi East 15.0 mph - N/A   Mostly Cloudy
7:00 PM 55 °F 51 °F 82% 29.70 in 25 mi East 13.4 mph - -   Scattered Clouds
7:00 PM 55.4 °F 51.8 °F 88% 29.68 in 6.2 mi East 13.8 mph - N/A   Scattered Clouds
7:30 PM 53.6 °F 51.8 °F 94% 29.68 in - East 12.7 mph - N/A   Clear